Hourly Weather Rudakovo

Today, 21 April, Wednesday

Time Temperature Precipitation Wind Pressure Humidity
00:00 +3°C° 0.2 mm 2 mps 745 mmHg 94%
01:00 +3°C° 0.2 mm 2 mps 744 mmHg 95%
02:00 +3°C° 0 mm 2 mps 743 mmHg 95%
03:00 +3°C° 0.9 mm 2 mps 742 mmHg 96%
04:00 +2°C° 0.9 mm 2 mps 741 mmHg 97%
05:00 +2°C° 0.9 mm 2 mps 740 mmHg 97%
06:00 +2°C° 0.7 mm 2 mps 740 mmHg 98%
07:00 +2°C° 0.7 mm 2 mps 739 mmHg 98%
08:00 +1°C° 0 mm 2 mps 738 mmHg 98%
09:00 +3°C° 0.4 mm 1 mps 738 mmHg 98%
10:00 +3°C° 0.4 mm 1 mps 737 mmHg 98%
11:00 +2°C° 0.4 mm 0 mps 737 mmHg 98%
12:00 +3°C° 0.2 mm 1 mps 737 mmHg 98%
13:00 +3°C° 0.2 mm 1 mps 737 mmHg 97%
14:00 +2°C° 0 mm 2 mps 737 mmHg 97%
15:00 +2°C° 0 mm 2 mps 737 mmHg 95%
16:00 +2°C° 0 mm 2 mps 737 mmHg 94%
17:00 +2°C° 0 mm 3 mps 737 mmHg 92%
18:00 +2°C° 0 mm 2 mps 737 mmHg 93%
19:00 +2°C° 0 mm 2 mps 738 mmHg 93%
20:00 +2°C° 0 mm 2 mps 738 mmHg 93%
21:00 +2°C° 0 mm 2 mps 738 mmHg 94%
22:00 +2°C° 0 mm 2 mps 738 mmHg 94%
23:00 +2°C° 0 mm 2 mps 738 mmHg 95%

Tomorrow, 22 April, Thursday

Time Temperature Precipitation Wind Pressure Humidity
00:00 +2°C° 0 mm 2 mps 738 mmHg 95%
01:00 +2°C° 0 mm 2 mps 739 mmHg 94%
02:00 +1°C° 0 mm 2 mps 739 mmHg 94%
03:00 +2°C° 0.1 mm 2 mps 739 mmHg 94%
04:00 +2°C° 0.1 mm 3 mps 739 mmHg 94%
05:00 +2°C° 0.1 mm 3 mps 739 mmHg 94%
06:00 +3°C° 0 mm 3 mps 739 mmHg 91%
07:00 +5°C° 0 mm 3 mps 739 mmHg 88%
08:00 +6°C° 0 mm 4 mps 740 mmHg 85%
09:00 +7°C° 0 mm 4 mps 740 mmHg 78%
10:00 +10°C° 0 mm 4 mps 740 mmHg 71%
11:00 +11°C° 0 mm 4 mps 741 mmHg 64%
12:00 +12°C° 0.1 mm 4 mps 741 mmHg 58%
13:00 +13°C° 0.1 mm 4 mps 741 mmHg 52%
14:00 +14°C° 0.1 mm 4 mps 741 mmHg 47%
15:00 +13°C° 0 mm 3 mps 741 mmHg 50%
16:00 +13°C° 0 mm 3 mps 741 mmHg 53%
17:00 +13°C° 0 mm 3 mps 741 mmHg 56%
18:00 +11°C° 0 mm 3 mps 741 mmHg 63%
19:00 +9°C° 0 mm 3 mps 741 mmHg 70%
20:00 +8°C° 0 mm 3 mps 741 mmHg 77%
21:00 +8°C° 0 mm 3 mps 741 mmHg 80%
22:00 +8°C° 0 mm 3 mps 740 mmHg 84%
23:00 +7°C° 0 mm 4 mps 740 mmHg 87%

Day after tomorrow, 23 April, Friday

Time Temperature Precipitation Wind Pressure Humidity
00:00 +7°C° 0 mm 3 mps 740 mmHg 90%
01:00 +5°C° 0 mm 3 mps 740 mmHg 93%
02:00 +6°C° 0 mm 2 mps 740 mmHg 96%
03:00 +5°C° 1.9 mm 2 mps 740 mmHg 96%
04:00 +4°C° 1.9 mm 3 mps 740 mmHg 96%
05:00 +3°C° 1.9 mm 3 mps 740 mmHg 95%
06:00 +4°C° 0.4 mm 3 mps 741 mmHg 91%
07:00 +5°C° 0.4 mm 2 mps 741 mmHg 87%
08:00 +6°C° 0.4 mm 2 mps 741 mmHg 83%
09:00 +5°C° 0.2 mm 3 mps 741 mmHg 82%
10:00 +7°C° 0.2 mm 3 mps 741 mmHg 81%
11:00 +7°C° 0.2 mm 3 mps 741 mmHg 80%
12:00 +7°C° 0.4 mm 3 mps 741 mmHg 79%
13:00 +7°C° 0.4 mm 3 mps 742 mmHg 78%
14:00 +7°C° 0.4 mm 3 mps 742 mmHg 76%
15:00 +7°C° 0.1 mm 3 mps 742 mmHg 72%
16:00 +8°C° 0.1 mm 3 mps 742 mmHg 68%
17:00 +8°C° 0.1 mm 3 mps 742 mmHg 64%
18:00 +7°C° 0 mm 2 mps 742 mmHg 69%
19:00 +6°C° 0 mm 2 mps 742 mmHg 74%
20:00 +5°C° 0 mm 2 mps 742 mmHg 79%
21:00 +5°C° 0 mm 1 mps 742 mmHg 79%
22:00 +5°C° 0 mm 1 mps 742 mmHg 79%
23:00 +5°C° 0 mm 1 mps 742 mmHg 80%

24 April, Saturday

Time Temperature Precipitation Wind Pressure Humidity
00:00 +4°C° 0 mm 1 mps 741 mmHg 80%
01:00 +4°C° 0 mm 1 mps 741 mmHg 81%
02:00 +4°C° 0 mm 1 mps 741 mmHg 82%
03:00 +4°C° 0 mm 1 mps 740 mmHg 83%
04:00 +3°C° 0 mm 1 mps 740 mmHg 84%
05:00 +3°C° 0 mm 1 mps 740 mmHg 84%
06:00 +4°C° 0 mm 1 mps 740 mmHg 81%
07:00 +4°C° 0 mm 1 mps 740 mmHg 79%
08:00 +4°C° 0 mm 2 mps 740 mmHg 76%
09:00 +5°C° 0.1 mm 2 mps 740 mmHg 71%
10:00 +5°C° 0.1 mm 2 mps 739 mmHg 66%
11:00 +6°C° 0.1 mm 2 mps 739 mmHg 62%
12:00 +7°C° 0.2 mm 2 mps 739 mmHg 57%
13:00 +7°C° 0.2 mm 2 mps 739 mmHg 53%
14:00 +8°C° 0.2 mm 3 mps 739 mmHg 49%
15:00 +7°C° 0.1 mm 2 mps 739 mmHg 48%
16:00 +7°C° 0.1 mm 2 mps 739 mmHg 48%
17:00 +7°C° 0.1 mm 2 mps 739 mmHg 48%
18:00 +6°C° 0 mm 2 mps 739 mmHg 56%
19:00 +4°C° 0 mm 2 mps 739 mmHg 64%
20:00 +4°C° 0 mm 1 mps 739 mmHg 72%
21:00 +3°C° 0 mm 1 mps 739 mmHg 77%
22:00 +1°C° 0 mm 2 mps 739 mmHg 81%
23:00 +1°C° 0 mm 2 mps 738 mmHg 85%

25 April, Sunday

Time Temperature Precipitation Wind Pressure Humidity
00:00 -1°C° 0 mm 2 mps 738 mmHg 89%
01:00 -1°C° 0 mm 2 mps 738 mmHg 92%
02:00 -2°C° 0 mm 2 mps 738 mmHg 96%
03:00 -2°C° 0 mm 2 mps 738 mmHg 94%
04:00 +1°C° 0 mm 1 mps 738 mmHg 92%
05:00 +1°C° 0 mm 1 mps 738 mmHg 90%
06:00 +1°C° 0 mm 2 mps 738 mmHg 85%
07:00 +1°C° 0 mm 2 mps 738 mmHg 80%
08:00 +2°C° 0 mm 2 mps 738 mmHg 75%
09:00 +3°C° 0.1 mm 2 mps 738 mmHg 72%
10:00 +3°C° 0.1 mm 2 mps 738 mmHg 70%
11:00 +4°C° 0.1 mm 2 mps 739 mmHg 68%
12:00 +4°C° 0.1 mm 2 mps 739 mmHg 67%
13:00 +4°C° 0.1 mm 3 mps 739 mmHg 67%
14:00 +4°C° 0.1 mm 3 mps 739 mmHg 66%
15:00 +4°C° 0.1 mm 3 mps 739 mmHg 66%
16:00 +4°C° 0.1 mm 3 mps 739 mmHg 65%
17:00 +4°C° 0.1 mm 3 mps 739 mmHg 64%
18:00 +4°C° 0 mm 2 mps 739 mmHg 72%
19:00 +2°C° 0 mm 2 mps 739 mmHg 80%
20:00 +1°C° 0 mm 2 mps 739 mmHg 88%
21:00 -1°C° 0 mm 2 mps 739 mmHg 90%
22:00 -1°C° 0 mm 2 mps 739 mmHg 92%
23:00 -2°C° 0 mm 2 mps 739 mmHg 94%

26 April, Monday

Time Temperature Precipitation Wind Pressure Humidity
00:00 -2°C° 0 mm 2 mps 739 mmHg 95%
01:00 -2°C° 0 mm 2 mps 739 mmHg 96%
02:00 -2°C° 0 mm 2 mps 739 mmHg 97%
03:00 -2°C° 0 mm 2 mps 739 mmHg 95%
04:00 -2°C° 0 mm 2 mps 739 mmHg 94%
05:00 -1°C° 0 mm 3 mps 739 mmHg 92%
06:00 -1°C° 0.2 mm 3 mps 739 mmHg 91%
07:00 0°C° 0.2 mm 3 mps 739 mmHg 89%
08:00 +1°C° 0.2 mm 3 mps 740 mmHg 88%
09:00 +1°C° 0.1 mm 3 mps 740 mmHg 82%
10:00 +2°C° 0.1 mm 3 mps 740 mmHg 75%
11:00 +3°C° 0.1 mm 4 mps 740 mmHg 69%
12:00 +3°C° 0 mm 4 mps 740 mmHg 68%
13:00 +3°C° 0 mm 4 mps 740 mmHg 68%
14:00 +3°C° 0 mm 4 mps 740 mmHg 67%
15:00 +1°C° 0 mm 4 mps 740 mmHg 69%
16:00 +1°C° 0 mm 4 mps 740 mmHg 71%
17:00 +1°C° 0 mm 4 mps 740 mmHg 73%
18:00 0°C° 0 mm 4 mps 740 mmHg 78%
19:00 0°C° 0 mm 3 mps 740 mmHg 82%
20:00 -1°C° 0 mm 3 mps 740 mmHg 87%
21:00 -1°C° 0.1 mm 3 mps 740 mmHg 90%
22:00 -1°C° 0.1 mm 3 mps 739 mmHg 93%
23:00 -1°C° 0.1 mm 3 mps 739 mmHg 95%
Show more